This demonstration page uses our WeatherBlox Daily Observations layout. Learn more.

Left ArrowRight Arrow

Hourly Observations for March 9, 2020

Temp ( °F °C ) Dew Point ( °F °C ) Humidity (%) Winds ( mph kmh ) Pressure ( in mb ) Visibility ( mi km ) Precip ( " mm )
12:51 am 00:51 Clear 46 7.8 44 6.7 93 93 Calm 30.06 1018 10 16 0.00 0.00
1:43 am 01:43 Mostly Clear with Mist and Fog 42 5.6 41 5 96 96 NW 6 9 30.16 1021 3 4 0.00 0.00
1:48 am 01:48 Mostly Cloudy with Mist and Fog 43 6 41 5 93 93 NNW 7 11 30.15 1021 1 2 0.00 0.00
1:51 am 01:51 Mostly Cloudy with Mist and Fog 42 5.6 41 5 96 96 NNW 7 11 30.08 1019 1 2 0.00 0.00
1:57 am 01:57 Mostly Clear with Mist and Fog 42 5.6 41 5 96 96 NNW 5 7 30.16 1021 3 4 0.00 0.00
2:04 am 02:04 Mostly Clear 43 6.1 42 5.6 97 97 NNW 7 11 30.15 1021 10 16 0.00 0.00
2:51 am 02:51 Clear 42 5.6 42 5.6 100 100 NW 3 6 30.06 1018 10 16 0.00 0.00
3:31 am 03:31 Clear with Mist and Fog 40 4.4 40 4.4 100 100 Calm 30.16 1021 1 1 0.00 0.00
3:42 am 03:42 Mostly Cloudy with Fog 39 4 39 4 100 100 Calm 30.18 1022 1 1 0.00 0.00
3:51 am 03:51 Mostly Cloudy with Fog 40 4.4 39 3.9 97 97 Calm 30.07 1018 1 1 0.00 0.00
4:27 am 04:27 Mostly Clear with Mist and Fog 40 4.4 39 3.9 97 97 Calm 30.18 1022 1 2 0.00 0.00
4:38 am 04:38 Partly Cloudy with Mist and Fog 39 4 39 4 100 100 E 5 7 30.19 1022 1 1 0.00 0.00
4:51 am 04:51 Mostly Cloudy with Mist and Fog 41 5 40 4.4 96 96 ESE 5 7 30.09 1019 2 2 0.00 0.00
5:12 am 05:12 Mostly Cloudy with Mist and Fog 41 5 41 5 100 100 ESE 3 6 30.19 1022 3 5 0.00 0.00
5:51 am 05:51 Mostly Cloudy 43 6.1 43 6.1 100 100 ESE 5 7 30.11 1020 10 16 0.00 0.00
6:51 am 06:51 Sunny 41 5 41 5 100 100 E 6 9 30.14 1021 10 16 0.00 0.00
7:51 am 07:51 Sunny 50 10 47 8.3 89 89 SE 10 17 30.15 1021 10 16 0.00 0.00
8:51 am 08:51 Sunny 56 13.3 48 8.9 75 75 E 12 19 30.15 1021 10 16 0.00 0.00
9:51 am 09:51 Sunny 60 15.6 48 8.9 65 65 E 12 19 30.16 1021 10 16 0.00 0.00
10:51 am 10:51 Sunny 61 16.1 48 8.9 63 63 ESE 8 13 30.16 1021 10 16 0.00 0.00
11:51 am 11:51 Mostly Sunny 65 18.3 46 7.8 51 51 SE 9 15 30.14 1021 10 16 0.00 0.00
12:51 pm 12:51 Sunny 67 19.4 44 6.7 44 44 ESE 10 17 30.08 1019 10 16 0.00 0.00
1:51 pm 13:51 Sunny 68 20 43 6.1 40 40 SSE 9 15 30.06 1018 10 16 0.00 0.00
2:51 pm 14:51 Sunny 70 21.1 42 5.6 37 37 ESE 8 13 30.04 1017 10 16 0.00 0.00
3:51 pm 15:51 Sunny 71 21.7 41 5 34 34 SE 5 7 30.04 1017 10 16 0.00 0.00
4:51 pm 16:51 Sunny 70 21.1 40 4.4 34 34 ENE 7 11 30.03 1017 10 16 0.00 0.00
5:51 pm 17:51 Sunny 68 20 41 5 38 38 ESE 5 7 30.04 1017 10 16 0.00 0.00
6:51 pm 18:51 Clear 64 17.8 43 6.1 46 46 ENE 7 11 30.06 1018 10 16 0.00 0.00
7:51 pm 19:51 Clear 63 17.2 43 6.1 48 48 E 7 11 30.06 1018 10 16 0.00 0.00
8:51 pm 20:51 Clear 63 17.2 41 5 45 45 E 8 13 30.06 1018 10 16 0.00 0.00
9:51 pm 21:51 Clear 61 16.1 43 6.1 52 52 SSE 5 7 30.09 1019 10 16 0.00 0.00
10:51 pm 22:51 Clear 60 15.6 42 5.6 52 52 E 3 6 30.08 1019 10 16 0.00 0.00
11:51 pm 23:51 Clear 57 13.9 42 5.6 58 58 NNE 8 13 30.09 1019 10 16 0.00 0.00

Powered by AerisWeather